Lawrenceville, IL

12:36 PM CDT on September 27, 2016 (GMT -0500)
Lawrenceville-Vincennes International

Weather History for KLWV - January, 2014

Change the Weather History Date:

Friday, January 31, 2014

  Actual Average Record
Temperature  
Mean Temperature 37 °F 32 °F  
Max Temperature 42 °F 40 °F 65 °F (2016)
Min Temperature 32 °F 24 °F -11 °F (2004)
Degree Days  
Heating Degree Days 28 33  
Month to date heating degree days 1235 1049  
Since 1 July heating degree days 3306 2851  
Cooling Degree Days 0 0  
Month to date cooling degree days 0 0  
Year to date cooling degree days 0 0  
Moisture  
Dew Point 21 °F    
Average Humidity 65    
Maximum Humidity 100    
Minimum Humidity 29    
Precipitation  
Precipitation 0.02 in 0.07 in 2.56 in (1982)
Month to date precipitation 1.59 2.38  
Year to date precipitation 1.59 2.38  
Sea Level Pressure  
Sea Level Pressure 30.07 in    
Wind  
Wind Speed 6 mph (SE)    
Max Wind Speed 16 mph    
Max Gust Speed 20 mph    
Visibility 7 miles    
Events      
T = Trace of Precipitation, MM = Missing Value Source: NWS Daily Summary

Daily Weather History Graph

Daily Weather History Graph

Search for Another Location

Airport or City:

Trip Planner

Search our weather history database for the weather conditions in past years. The results will help you decide how hot, cold, wet, or windy it might be!

Date:

Astronomy

Jan. 31, 2014 Rise Set
Actual Time 6:57 AM CST 5:11 PM CST
Civil Twilight 6:29 AM CST 5:39 PM CST
Nautical Twilight 5:57 AM CST 6:11 PM CST
Astronomical Twilight 5:25 AM CST 6:42 PM CST
Moon 7:07 AM CST (1/31) 6:33 PM CST (1/31)
Length of Visible Light 11h 10m
Length of Day
10h 13m
New Moon, 1% of the Moon is Illuminated
Jan 31
New Moon
Feb 6
First Quarter
Feb 14
Full
Feb 22
Last Quarter
Mar 1
New

Hourly Weather History & Observations

Time (CST) Temp. Windchill Dew Point Humidity Pressure Visibility Wind Dir Wind Speed Gust Speed Precip Events Conditions
12:53 AM 36.0 °F 29.6 °F 10.9 °F 36% 30.01 in 10.0 mi SW 8.1 mph - N/A   Overcast
1:53 AM 34.0 °F 28.8 °F 14.0 °F 44% 30.02 in 10.0 mi South 5.8 mph - N/A   Overcast
2:53 AM 34.0 °F 28.0 °F 14.0 °F 44% 30.04 in 10.0 mi SSW 6.9 mph - N/A   Overcast
3:53 AM 33.1 °F 28.7 °F 16.0 °F 50% 30.06 in 10.0 mi SW 4.6 mph - N/A   Overcast
4:53 AM 32.0 °F 27.5 °F 18.0 °F 56% 30.06 in 10.0 mi SSE 4.6 mph - N/A   Overcast
5:53 AM 32.0 °F 28.7 °F 17.1 °F 54% 30.07 in 10.0 mi SSE 3.5 mph - N/A   Overcast
6:53 AM 32.0 °F 25.6 °F 16.0 °F 52% 30.08 in 10.0 mi South 6.9 mph - N/A   Overcast
7:53 AM 34.0 °F 26.0 °F 12.9 °F 42% 30.10 in 10.0 mi South 10.4 mph - N/A   Overcast
8:53 AM 35.1 °F 27.9 °F 12.0 °F 39% 30.13 in 10.0 mi South 9.2 mph - N/A   Overcast
9:53 AM 37.9 °F 35.5 °F 12.0 °F 35% 30.14 in 10.0 mi WSW 3.5 mph - N/A   Overcast
10:53 AM 39.0 °F - 12.0 °F 33% 30.14 in 10.0 mi Calm Calm - N/A   Clear
11:53 AM 39.9 °F - 12.0 °F 32% 30.12 in 10.0 mi Calm Calm - N/A   Partly Cloudy
12:53 PM 41.0 °F 39.0 °F 12.9 °F 32% 30.11 in 10.0 mi SE 3.5 mph - N/A   Partly Cloudy
1:53 PM 42.1 °F 39.2 °F 12.9 °F 31% 30.09 in 10.0 mi East 4.6 mph - N/A   Mostly Cloudy
2:53 PM 42.1 °F 39.2 °F 15.1 °F 34% 30.08 in 10.0 mi East 4.6 mph - N/A   Overcast
3:53 PM 41.0 °F 38.0 °F 18.0 °F 40% 30.08 in 8.0 mi East 4.6 mph - N/A   Overcast
4:53 PM 39.0 °F 33.4 °F 17.1 °F 41% 30.06 in 9.0 mi ENE 8.1 mph - N/A   Overcast
5:53 PM 37.0 °F 33.3 °F 21.9 °F 54% 30.07 in 8.0 mi NE 4.6 mph - N/A   Overcast
6:53 PM 37.9 °F 29.6 °F 21.9 °F 53% 30.09 in 10.0 mi South 13.8 mph 18.4 mph N/A   Overcast
7:11 PM 37.0 °F 27.7 °F 30.0 °F 76% 30.08 in 8.0 mi South 16.1 mph - N/A   Overcast
7:37 PM 35.1 °F 27.4 °F 32.0 °F 89% 30.07 in 2.5 mi SSE 10.4 mph - 0.00 in   Overcast
7:53 PM 35.1 °F 29.3 °F 32.0 °F 89% 30.09 in 1.8 mi SSE 6.9 mph - 0.00 in   Overcast
8:44 PM 34.0 °F 28.8 °F 33.1 °F 96% 30.07 in 1.0 mi East 5.8 mph - 0.01 in   Overcast
8:53 PM 34.0 °F 29.8 °F 33.1 °F 96% 30.08 in 1.2 mi East 4.6 mph - 0.01 in   Overcast
9:30 PM 34.0 °F 28.8 °F 33.1 °F 96% 30.06 in 1.2 mi East 5.8 mph - N/A   Overcast
9:53 PM 34.0 °F 28.8 °F 33.1 °F 96% 30.06 in 1.0 mi East 5.8 mph - 0.00 in   Overcast
10:07 PM 34.0 °F 28.8 °F 33.1 °F 96% 30.04 in 1.0 mi East 5.8 mph - N/A   Overcast
10:53 PM 35.1 °F 29.3 °F 33.1 °F 92% 30.03 in 1.0 mi East 6.9 mph - 0.01 in   Overcast
11:53 PM 35.1 °F 30.1 °F 33.1 °F 92% 30.03 in 1.0 mi East 5.8 mph - N/A   Overcast